TimeCST,TemperatureF,Dew PointF,Humidity,Sea Level PressureIn,VisibilityMPH,Wind Direction,Wind SpeedMPH,Gust SpeedMPH,PrecipitationIn,Events,Conditions,WindDirDegrees,DateUTC
12:00 AM,71,61,64,30.01,12,East,11.5,,,,,100,2012-11-08 06:00:00
12:00 AM,71.6,60.8,69,29.98,6.2,East,11.5,23.0,N/A,,Scattered Clouds,100,2012-11-08 06:00:00
1:00 AM,69.8,62.6,78,29.97,6.2,ESE,10.4,-,N/A,,Partly Cloudy,110,2012-11-08 07:00:00
2:00 AM,69.8,60.8,73,29.95,-9999.0,East,12.7,-,N/A,,Clear,100,2012-11-08 08:00:00
3:00 AM,71,61,63,29.79,12,East,8.1,,,,Scattered Clouds,90,2012-11-08 09:00:00
3:00 AM,71.6,60.8,69,29.96,6.2,East,8.1,-,N/A,,Scattered Clouds,90,2012-11-08 09:00:00
4:00 AM,69.8,62.6,78,29.97,-9999.0,East,5.8,-,N/A,,Clear,100,2012-11-08 10:00:00
5:00 AM,69.8,60.8,73,29.98,-9999.0,ESE,11.5,-,N/A,,Clear,110,2012-11-08 11:00:00
6:00 AM,69,61,70,29.86,12,ENE,10.4,,,,Scattered Clouds,60,2012-11-08 12:00:00
6:00 AM,69.8,60.8,73,30.00,6.2,ENE,10.4,-,N/A,,Mostly Cloudy,60,2012-11-08 12:00:00
7:00 AM,69.8,62.6,78,30.04,6.2,ENE,16.1,-,N/A,,Mostly Cloudy,70,2012-11-08 13:00:00
8:00 AM,71.6,62.6,73,30.05,6.2,East,11.5,-,N/A,,Mostly Cloudy,80,2012-11-08 14:00:00
9:00 AM,77,64,54,29.92,12,ESE,10.4,,,,Scattered Clouds,110,2012-11-08 15:00:00
9:00 AM,77.0,64.4,65,30.04,6.2,ESE,10.4,-,N/A,,Scattered Clouds,110,2012-11-08 15:00:00
10:00 AM,80.6,64.4,58,30.03,6.2,East,6.9,-,N/A,,Scattered Clouds,100,2012-11-08 16:00:00
11:00 AM,80.6,64.4,58,30.02,6.2,ESE,15.0,-,N/A,,Scattered Clouds,120,2012-11-08 17:00:00
12:00 PM,80.6,64.4,58,29.98,6.2,East,11.5,-,N/A,,Scattered Clouds,100,2012-11-08 18:00:00
1:00 PM,82.4,62.6,51,29.95,6.2,East,11.5,-,N/A,,Scattered Clouds,100,2012-11-08 19:00:00
2:00 PM,78.8,64.4,61,29.93,6.2,ESE,4.6,-,N/A,,Mostly Cloudy,110,2012-11-08 20:00:00
3:00 PM,77,62,50,29.78,12,East,11.5,,,Rain,Drizzle,80,2012-11-08 21:00:00
3:00 PM,77.0,62.6,61,29.93,6.2,East,11.5,-,N/A,,Drizzle,80,2012-11-08 21:00:00
4:00 PM,77.0,62.6,61,29.93,6.2,East,5.8,-,N/A,,Mostly Cloudy,100,2012-11-08 22:00:00
5:00 PM,75.2,62.6,65,29.94,6.2,SE,5.8,-,N/A,,Mostly Cloudy,140,2012-11-08 23:00:00
6:00 PM,72,62,64,29.83,12,ESE,6.9,,,,Scattered Clouds,120,2012-11-09 00:00:00
6:00 PM,71.6,62.6,73,29.95,6.2,ESE,6.9,-,N/A,,Scattered Clouds,120,2012-11-09 00:00:00
7:00 PM,71.6,62.6,73,29.98,6.2,East,6.9,-,N/A,,Mostly Cloudy,100,2012-11-09 01:00:00
8:00 PM,69.8,64.4,83,30.00,6.2,ENE,12.7,-,N/A,Rain,Rain,60,2012-11-09 02:00:00
9:00 PM,69,62,71,29.83,12,East,5.8,,,,Scattered Clouds,80,2012-11-09 03:00:00
9:00 PM,69.8,60.8,73,29.99,6.2,East,5.8,-,N/A,,Mostly Cloudy,80,2012-11-09 03:00:00
10:00 PM,69.8,60.8,73,29.98,6.2,ESE,11.5,23.0,N/A,,Mostly Cloudy,110,2012-11-09 04:00:00
11:00 PM,69.8,62.6,78,29.98,6.2,ENE,9.2,-,N/A,Rain,Light Rain,60,2012-11-09 05:00:00